Location: Iesi
(43.5167°N, 13.2333°E)
Time: 01:30:10
(UTC+00:00)

Cosmos 1933 Rocket - Pass Details

Date: 08 August 2020
Orbit: 606 x 631 km, 82.5° (Epoch: 25 September)

Event Time Altitude Azimuth Distance (km) Brightness Sun altitude
Exits shadow 20:24:12 42° 109° (ESE) 896 3.9 -19.3°
Maximum altitude 20:24:38 43° 92° (E) 877 4.0 -19.3°
Drops below altitude 10° 20:28:50 10° 22° (NNE) 2,005 6.5 -19.8°
Sets 20:31:10 0° 15° (NNE) 2,920 7.5 -20.1°
